• In Belarus
  • List of Countries
  • For 7 days
  • Water Temperature
  • Satellite Maps
  • Weather Map
  • Weather Widgets
  • user-avatar
    Login

    Hourly Weather Tskhinvali

    Today, 18 January, Thursday

    Time Temperature Precipitation Wind Pressure Humidity
    00:00 -2°C° 0 mm 1 mps 677 mmHg 72%
    01:00 -2°C° 0 mm 1 mps 677 mmHg 72%
    02:00 -2°C° 0 mm 1 mps 677 mmHg 72%
    03:00 -1°C° 0 mm 1 mps 676 mmHg 72%
    04:00 -1°C° 0 mm 1 mps 676 mmHg 73%
    05:00 -1°C° 0 mm 1 mps 676 mmHg 73%
    06:00 -1°C° 0 mm 1 mps 676 mmHg 74%
    07:00 -2°C° 0 mm 2 mps 676 mmHg 75%
    08:00 -2°C° 0 mm 2 mps 676 mmHg 75%
    09:00 -1°C° 0 mm 2 mps 675 mmHg 74%
    10:00 0°C° 0 mm 3 mps 675 mmHg 73%
    11:00 0°C° 0 mm 3 mps 674 mmHg 72%
    12:00 +1°C° 0 mm 3 mps 674 mmHg 70%
    13:00 +1°C° 0.1 mm 3 mps 673 mmHg 72%
    14:00 +1°C° 0.1 mm 3 mps 673 mmHg 73%
    15:00 +1°C° 0 mm 3 mps 672 mmHg 73%
    16:00 0°C° 0.2 mm 3 mps 672 mmHg 77%
    17:00 -1°C° 0.2 mm 3 mps 672 mmHg 80%
    18:00 -1°C° 0.2 mm 3 mps 672 mmHg 83%
    19:00 -1°C° 0.5 mm 3 mps 672 mmHg 85%
    20:00 -1°C° 0.5 mm 3 mps 672 mmHg 87%
    21:00 -1°C° 0.5 mm 3 mps 672 mmHg 89%
    22:00 -1°C° 0.6 mm 3 mps 672 mmHg 88%
    23:00 -1°C° 0.6 mm 3 mps 672 mmHg 88%

    Tomorrow, 19 January, Friday

    Time Temperature Precipitation Wind Pressure Humidity
    00:00 -1°C° 0.6 mm 3 mps 671 mmHg 88%
    01:00 -1°C° 0.6 mm 3 mps 672 mmHg 88%
    02:00 -1°C° 0.6 mm 3 mps 672 mmHg 89%
    03:00 0°C° 0.6 mm 3 mps 672 mmHg 89%
    04:00 0°C° 0.4 mm 3 mps 672 mmHg 88%
    05:00 0°C° 0.4 mm 3 mps 673 mmHg 87%
    06:00 0°C° 0.4 mm 3 mps 673 mmHg 86%
    07:00 +1°C° 0 mm 2 mps 673 mmHg 85%
    08:00 +2°C° 0 mm 2 mps 674 mmHg 83%
    09:00 +2°C° 0 mm 2 mps 674 mmHg 82%
    10:00 +3°C° 0 mm 2 mps 675 mmHg 82%
    11:00 +4°C° 0 mm 2 mps 675 mmHg 81%
    12:00 +5°C° 0 mm 2 mps 675 mmHg 81%
    13:00 +5°C° 0 mm 2 mps 675 mmHg 81%
    14:00 +5°C° 0 mm 2 mps 676 mmHg 81%
    15:00 +6°C° 0 mm 1 mps 676 mmHg 82%
    16:00 +5°C° 0 mm 1 mps 676 mmHg 83%
    17:00 +4°C° 0 mm 1 mps 677 mmHg 84%
    18:00 +3°C° 0 mm 1 mps 678 mmHg 86%
    19:00 +1°C° 0.1 mm 2 mps 678 mmHg 87%
    20:00 +1°C° 0.1 mm 2 mps 679 mmHg 89%
    21:00 +1°C° 0.1 mm 2 mps 679 mmHg 90%
    22:00 +1°C° 0.1 mm 2 mps 679 mmHg 90%
    23:00 +1°C° 0.1 mm 2 mps 680 mmHg 90%

    Day after tomorrow, 20 January, Saturday

    Time Temperature Precipitation Wind Pressure Humidity
    00:00 +1°C° 0.1 mm 2 mps 680 mmHg 90%
    01:00 0°C° 0 mm 3 mps 680 mmHg 90%
    02:00 0°C° 0 mm 3 mps 681 mmHg 89%
    03:00 -1°C° 0 mm 3 mps 681 mmHg 88%
    04:00 -1°C° 0 mm 3 mps 681 mmHg 88%
    05:00 -1°C° 0 mm 3 mps 681 mmHg 87%
    06:00 -1°C° 0 mm 3 mps 682 mmHg 86%
    07:00 0°C° 0 mm 3 mps 682 mmHg 86%
    08:00 0°C° 0 mm 3 mps 682 mmHg 85%
    09:00 +1°C° 0 mm 3 mps 683 mmHg 84%
    10:00 +3°C° 0 mm 2 mps 683 mmHg 82%
    11:00 +4°C° 0 mm 2 mps 683 mmHg 80%
    12:00 +5°C° 0 mm 2 mps 683 mmHg 78%
    13:00 +6°C° 0 mm 1 mps 683 mmHg 77%
    14:00 +6°C° 0 mm 1 mps 683 mmHg 76%
    15:00 +7°C° 0 mm 1 mps 682 mmHg 76%
    16:00 +5°C° 0 mm 1 mps 683 mmHg 77%
    17:00 +4°C° 0 mm 1 mps 683 mmHg 78%
    18:00 +3°C° 0 mm 1 mps 683 mmHg 79%
    19:00 +2°C° 0 mm 1 mps 683 mmHg 76%
    20:00 +1°C° 0 mm 2 mps 683 mmHg 73%
    21:00 -1°C° 0 mm 2 mps 683 mmHg 70%
    22:00 -1°C° 0 mm 2 mps 683 mmHg 70%
    23:00 -1°C° 0 mm 2 mps 683 mmHg 70%

    21 January, Sunday

    Time Temperature Precipitation Wind Pressure Humidity
    00:00 -1°C° 0 mm 2 mps 683 mmHg 71%
    01:00 -1°C° 0 mm 2 mps 683 mmHg 71%
    02:00 -1°C° 0 mm 2 mps 683 mmHg 72%
    03:00 -1°C° 0 mm 2 mps 683 mmHg 72%
    04:00 -2°C° 0 mm 2 mps 682 mmHg 70%
    05:00 -2°C° 0 mm 2 mps 682 mmHg 68%
    06:00 -2°C° 0 mm 2 mps 682 mmHg 66%
    07:00 -1°C° 0 mm 2 mps 682 mmHg 63%
    08:00 +1°C° 0 mm 2 mps 682 mmHg 61%
    09:00 +3°C° 0 mm 1 mps 682 mmHg 59%
    10:00 +3°C° 0 mm 2 mps 682 mmHg 57%
    11:00 +5°C° 0 mm 2 mps 682 mmHg 56%
    12:00 +6°C° 0 mm 2 mps 682 mmHg 55%
    13:00 +6°C° 0 mm 2 mps 682 mmHg 55%
    14:00 +8°C° 0 mm 1 mps 682 mmHg 56%
    15:00 +8°C° 0 mm 1 mps 682 mmHg 56%
    16:00 +6°C° 0 mm 1 mps 682 mmHg 55%
    17:00 +5°C° 0 mm 1 mps 682 mmHg 53%
    18:00 +2°C° 0 mm 2 mps 682 mmHg 52%
    19:00 +2°C° 0 mm 2 mps 682 mmHg 50%
    20:00 +2°C° 0 mm 2 mps 682 mmHg 48%
    21:00 +2°C° 0 mm 2 mps 682 mmHg 46%
    22:00 +2°C° 0 mm 2 mps 682 mmHg 45%
    23:00 +2°C° 0 mm 2 mps 681 mmHg 44%

    22 January, Monday

    Time Temperature Precipitation Wind Pressure Humidity
    00:00 +2°C° 0 mm 2 mps 681 mmHg 43%
    01:00 +2°C° 0 mm 2 mps 680 mmHg 44%
    02:00 +2°C° 0 mm 2 mps 680 mmHg 44%
    03:00 +2°C° 0 mm 2 mps 680 mmHg 45%
    04:00 +2°C° 0 mm 2 mps 679 mmHg 46%
    05:00 +2°C° 0 mm 2 mps 679 mmHg 48%
    06:00 +2°C° 0 mm 2 mps 679 mmHg 49%
    07:00 +2°C° 0 mm 2 mps 679 mmHg 50%
    08:00 +3°C° 0 mm 2 mps 678 mmHg 51%
    09:00 +3°C° 0 mm 2 mps 678 mmHg 53%
    10:00 +3°C° 0 mm 3 mps 678 mmHg 51%
    11:00 +5°C° 0 mm 3 mps 678 mmHg 49%
    12:00 +7°C° 0 mm 3 mps 677 mmHg 47%
    13:00 +7°C° 0 mm 3 mps 677 mmHg 48%
    14:00 +5°C° 0 mm 3 mps 677 mmHg 49%
    15:00 +5°C° 0 mm 3 mps 676 mmHg 50%
    16:00 +5°C° 0 mm 2 mps 676 mmHg 51%
    17:00 +3°C° 0 mm 2 mps 676 mmHg 52%
    18:00 +1°C° 0 mm 2 mps 676 mmHg 53%
    19:00 +1°C° 0 mm 2 mps 677 mmHg 55%
    20:00 +2°C° 0 mm 1 mps 677 mmHg 56%
    21:00 +1°C° 0 mm 1 mps 677 mmHg 57%
    22:00 +1°C° 0 mm 1 mps 677 mmHg 58%
    23:00 +1°C° 0 mm 1 mps 677 mmHg 59%

    23 January, Tuesday

    Time Temperature Precipitation Wind Pressure Humidity
    00:00 +1°C° 0 mm 1 mps 677 mmHg 60%
    01:00 +1°C° 0 mm 1 mps 677 mmHg 60%
    02:00 +1°C° 0 mm 1 mps 677 mmHg 59%
    03:00 0°C° 0 mm 1 mps 677 mmHg 59%
    04:00 0°C° 0 mm 1 mps 677 mmHg 59%
    05:00 0°C° 0 mm 1 mps 677 mmHg 59%
    06:00 +1°C° 0 mm 1 mps 677 mmHg 59%
    07:00 +1°C° 0 mm 1 mps 677 mmHg 59%
    08:00 +2°C° 0 mm 1 mps 677 mmHg 58%
    09:00 +3°C° 0 mm 1 mps 677 mmHg 58%
    10:00 +4°C° 0 mm 1 mps 677 mmHg 57%
    11:00 +5°C° 0 mm 1 mps 677 mmHg 56%
    12:00 +5°C° 0 mm 2 mps 677 mmHg 55%
    13:00 +5°C° 0 mm 2 mps 677 mmHg 56%
    14:00 +5°C° 0 mm 2 mps 677 mmHg 57%
    15:00 +6°C° 0 mm 1 mps 677 mmHg 59%
    16:00 +5°C° 0 mm 1 mps 677 mmHg 60%
    17:00 +3°C° 0 mm 1 mps 677 mmHg 62%
    18:00 +2°C° 0 mm 1 mps 677 mmHg 63%
    19:00 +2°C° 0 mm 1 mps 677 mmHg 66%
    20:00 +2°C° 0 mm 1 mps 677 mmHg 69%
    21:00 +2°C° 0 mm 1 mps 677 mmHg 72%
    22:00 +1°C° 0.1 mm 1 mps 678 mmHg 74%
    23:00 +1°C° 0.1 mm 1 mps 678 mmHg 77%
    Show more